Weather observations for the past three days for
Clinton, Clinton-Sherman Airport
Imperial (Metric)
Date Time (cdt) Wind (mph) Vis. (mi.) Weather Sky Cond. Temperature (ºF) Relative Humidity Wind Chill (°F) Heat Index (°F) Pressure Precipitation (in)
Air Dwpt 6 hour altimeter (in) sea level (mb) 1 hr 3 hr 6 hr
Max. Min.
15 01:53 S 10 10.00 Fair CLR 73.9 63 69% 29.99 1012.5
15 00:53 S 8 10.00 Fair CLR 75 62.1 93 75 64% 77 30 1013.1
14 23:53 S 8 10.00 Fair CLR 79 62.1 56% 80 30.01 1013.3
14 22:53 S 10 10.00 Fair CLR 80.1 61 52% 81 29.99 1012.9
14 21:53 S 8 10.00 Fair CLR 82 60.1 47% 82 29.98 1012.3
14 20:53 S 10 10.00 Fair CLR 86 59 40% 85 29.95 1011.5
14 19:53 S 13 10.00 Fair CLR 90 59 35% 89 29.95 1011.5
14 18:53 S 12 G 21 10.00 Fair CLR 93.9 60.1 97 91.9 32% 94 29.94 1011.0
14 17:53 SE 14 G 24 10.00 Fair CLR 95 60.1 31% 95 29.94 1011.2
14 16:53 SE 10 G 18 10.00 Fair CLR 96.1 60.1 30% 96 29.97 1012.1
14 15:53 SE 12 G 21 10.00 Fair CLR 96.1 57.9 28% 95 29.98 1012.4
14 13:53 SE 12 G 20 9.00 Fair CLR 95 60.1 31% 95 30.03 1013.8
14 12:53 S 6 10.00 Fair CLR 91.9 62.1 93 72 37% 93 30.05 1014.7
14 11:53 Calm 10.00 Fair CLR 90 64.9 44% 92 30.05 1014.9
14 10:53 SE 8 10.00 Fair CLR 87.1 66.9 51% 90 30.05 1014.7
14 09:53 S 7 10.00 Fair CLR 84 66.9 57% 87 30.06 1015.2
14 08:53 SW 7 10.00 Fair CLR 81 66.9 62% 83 30.06 1015.2
14 07:53 S 8 10.00 Fair CLR 77 66.9 71% 79 30.03 1014.1
14 05:53 S 10 10.00 Fair CLR 73 63 71% 29.98 1012.1
14 04:53 S 8 10.00 Fair CLR 72 57.9 61% 29.97 1012.0
14 03:53 S 12 10.00 Fair CLR 73.9 55.9 54% 29.95 1011.3
14 02:53 S 13 10.00 Fair CLR 75.9 57 52% 78 29.98 1012.1
14 01:53 SE 18 10.00 Fair CLR 75.9 57 52% 78 29.99 1012.4
14 00:53 E 7 10.00 Fair CLR 77 57 93 77 50% 79 30.07 1015.4
13 23:53 NE 17 G 29 10.00 A Few Clouds FEW055 80.1 57 45% 80 30.09 1016.0
13 22:53 S 12 10.00 Fair CLR 82 64.9 56% 84 30.01 1013.6
13 21:53 S 13 10.00 Fair CLR 82.9 64 53% 84 29.95 1011.4
13 20:53 S 13 10.00 Fair CLR 86 64 48% 87 29.91 1010.0
13 19:53 S 17 10.00 Fair CLR 91 64 41% 93 29.89 1009.6
13 18:53 S 17 G 26 10.00 Fair CLR 93 63 99 93 37% 94 29.89 1009.4
13 17:53 S 20 G 29 10.00 Fair CLR 96.1 64 35% 98 29.91 1010.0
13 16:53 S 17 G 25 10.00 Fair CLR 98.1 62.1 31% 99 29.92 1010.4
13 15:53 S 20 G 28 10.00 Fair CLR 98.1 64 33% 101 29.93 1010.6
13 14:53 S 15 G 29 10.00 Fair CLR 96.1 64 35% 98 29.95 1011.1
13 13:53 S 14 G 28 10.00 Fair CLR 96.1 66 37% 100 29.96 1011.5
13 12:53 S 16 G 28 10.00 Fair CLR 93 66 93 70 41% 96 29.96 1011.9
13 11:53 S 20 G 30 10.00 Fair CLR 90 66.9 47% 93 29.97 1012.2
13 10:53 S 22 G 28 10.00 Fair and Breezy CLR 86 66.9 53% 89 29.98 1012.4
13 09:53 SW 20 G 30 10.00 Fair CLR 82.9 68 61% 86 29.98 1012.6
13 08:53 S 21 G 29 10.00 Fair and Breezy CLR 79 69.1 72% 82 29.98 1012.5
13 07:53 S 17 G 23 10.00 Fair CLR 73 68 84% 29.97 1012.3
13 06:53 S 12 9.00 Fair CLR 70 66.9 73.9 69.1 90% 29.96 1012.0
13 04:53 S 9 10.00 Fair CLR 69.1 66.9 93% 29.94 1011.2
13 03:53 S 12 10.00 Fair CLR 72 66.9 84% 29.94 1011.0
13 02:53 S 13 10.00 Fair CLR 73 66.9 81% 29.94 1011.1
13 01:53 S 8 10.00 Fair CLR 73.9 66.9 79% 29.95 1011.4
13 00:53 S 10 10.00 Fair CLR 73.9 66 88 73.9 76% 29.96 1011.8
12 23:53 S 10 10.00 Fair CLR 75.9 66 72% 77 29.96 1011.9
12 22:53 S 10 10.00 Fair CLR 77 64.9 66% 79 29.96 1012.1
12 21:53 S 9 10.00 Fair CLR 78.1 64.9 64% 80 29.94 1011.6
12 20:53 S 10 10.00 Fair CLR 81 64 57% 83 29.93 1011.0
12 19:53 S 12 10.00 Fair CLR 84.9 64 50% 86 29.93 1011.2
12 18:53 S 15 G 24 10.00 Fair CLR 88 64 91 84.9 45% 89 29.93 1011.1
12 17:53 S 15 G 26 10.00 Fair CLR 89.1 64 43% 90 29.93 1011.2
12 16:53 S 16 10.00 Fair CLR 90 64 42% 91 29.95 1011.6
12 15:53 S 15 G 25 10.00 Fair CLR 89.1 63 42% 90 29.97 1012.3
12 14:53 S 17 G 24 10.00 Fair CLR 88 64 45% 89 29.98 1012.9
12 13:53 S 13 G 23 10.00 Fair CLR 88 64 45% 89 30.01 1013.8
12 12:53 SW 15 G 23 10.00 Fair CLR 86 64 86 66 48% 87 30.03 1014.5
12 11:53 S 13 G 24 10.00 A Few Clouds FEW031 82.9 64 53% 84 30.04 1014.9
12 10:53 S 14 G 22 10.00 Partly Cloudy SCT026 79 64.9 62% 81 30.05 1015.1
12 09:53 S 10 10.00 A Few Clouds FEW022 78.1 64.9 64% 80 30.06 1015.8
12 08:53 S 10 10.00 Fair CLR 73.9 64.9 74% 30.06 1015.7
12 06:53 S 6 6.00 Fog/Mist CLR 66 64 68 64 93% 30.05 1015.3
12 05:53 S 8 8.00 Fair CLR 66.9 64.9 93% 30.03 1014.8
12 04:53 S 6 7.00 Fair CLR 64.9 64 97% 30.02 1014.4
12 03:53 S 6 9.00 Fair CLR 66 64 93% 30.01 1013.9
12 02:53 SW 5 10.00 Fair CLR 64.9 63 93% 30.02 1014.5
Date Time (cdt) Wind (mph) Vis. (mi.) Weather Sky Cond. Air Dwpt Max. Min. Relative Humidity Wind Chill (°F) Heat Index (°F) altimeter (in) sea level (mb) 1 hr 3 hr 6 hr
6 hour
Temperature (ºF) Pressure Precipitation (in)